WB9ZLM Weather Reports


time (UTC)temp
C
wind
direction
speed
KPH
gust
KPH
rain 1hr
cm
rain 24hr
cm
rain mn
cm
humidity
%
barometer
mb
20260504080201 13 0 0.0 8.0 0.00 0.00 0.00 62 1008.2
20260504070201 13 0 0.0 8.0 0.00 0.00 0.00 59 1014.1
20260504060201 14 0 0.0 8.0 0.00 0.00 0.00 58 1009.4
20260504050412 15 0 0.0 8.0 0.00 0.00 0.00 56 1014.1
20260504050201 15 0 0.0 8.0 0.00 0.00 0.00 56 1014.1
20260504044701 15 0 0.0 8.0 0.00 0.00 0.00 57 1014.1
20260504044600 15 0 0.0 8.0 0.00 0.00 0.00 57 1014.1
20260504043201 15 240 0.0 8.0 0.00 0.00 0.00 56 1010.1
20260504043100 15 240 0.0 8.0 0.00 0.00 0.00 56 1010.1
20260504041702 15 240 0.0 8.0 0.00 0.00 0.00 57 1010.1
20260504041600 15 240 0.0 8.0 0.00 0.00 0.00 57 1010.1
20260504040201 15 240 0.0 8.0 0.00 0.00 0.00 57 1010.1
20260504040100 15 240 0.0 8.0 0.00 0.00 0.00 57 1010.1
20260504034701 15 240 0.0 8.0 0.00 0.00 0.00 57 1010.2
20260504034600 15 240 0.0 8.0 0.00 0.00 0.00 57 1010.2
20260504033201 15 240 0.0 8.0 0.00 0.00 0.00 57 1010.3
20260504033100 15 240 0.0 8.0 0.00 0.00 0.00 57 1010.3
20260504031701 16 240 0.0 8.0 0.00 0.00 0.00 56 1010.3
20260504031600 16 240 0.0 8.0 0.00 0.00 0.00 56 1010.3
20260504030201 16 230 0.0 8.0 0.00 0.00 0.00 55 1010.2
20260504030100 16 230 0.0 8.0 0.00 0.00 0.00 55 1010.2
20260504024701 16 230 0.0 8.0 0.00 0.00 0.00 54 1010.3
20260504024600 16 230 0.0 8.0 0.00 0.00 0.00 54 1010.3
20260504023202 16 230 0.0 8.0 0.00 0.00 0.00 53 1010.2
20260504023100 16 230 0.0 8.0 0.00 0.00 0.00 53 1010.2
20260504021701 16 230 0.0 8.0 0.00 0.00 0.00 53 1010.1
20260504021600 16 230 0.0 8.0 0.00 0.00 0.00 53 1010.1
20260504020202 17 230 0.0 8.0 0.00 0.00 0.00 52 1010.1
20260504020100 17 230 0.0 8.0 0.00 0.00 0.00 52 1010.1
20260504014701 17 240 0.0 8.0 0.00 0.00 0.00 51 1009.9
20260504014600 17 240 0.0 8.0 0.00 0.00 0.00 51 1009.9
20260504013201 17 230 0.0 8.0 0.00 0.00 0.00 49 1010.0
20260504013100 17 230 0.0 8.0 0.00 0.00 0.00 49 1010.0
20260504011701 17 230 0.0 8.0 0.00 0.00 0.00 46 1009.8
20260504011600 17 230 0.0 8.0 0.00 0.00 0.00 46 1009.8
20260504010201 17 240 0.0 8.0 0.00 0.00 0.00 46 1009.8
20260504010100 17 240 0.0 8.0 0.00 0.00 0.00 46 1009.8
20260504004702 18 240 0.0 8.0 0.00 0.00 0.00 45 1009.8
20260504004600 18 240 0.0 8.0 0.00 0.00 0.00 45 1009.8
20260504003201 18 240 0.0 8.0 0.00 0.00 0.00 45 1009.8
20260504003100 18 240 0.0 8.0 0.00 0.00 0.00 45 1009.8
20260504001701 18 240 3.2 8.0 0.00 0.00 0.00 43 1009.7
20260504001600 18 240 3.2 8.0 0.00 0.00 0.00 43 1009.7
20260504000201 18 240 0.0 8.0 0.00 0.00 0.00 43 1009.9
20260504000100 18 240 0.0 8.0 0.00 0.00 0.00 43 1009.9
20260503234701 18 240 0.0 8.0 0.00 0.00 0.00 43 1010.0
20260503234600 18 240 0.0 8.0 0.00 0.00 0.00 43 1010.0
20260503233201 19 240 3.2 8.0 0.00 0.00 0.00 42 1009.9
20260503233100 19 240 3.2 8.0 0.00 0.00 0.00 42 1009.9
20260503231701 19 250 8.0 8.0 0.00 0.00 0.00 42 1010.0
20260503231600 19 250 8.0 8.0 0.00 0.00 0.00 42 1010.0
20260503230201 19 240 0.0 8.0 0.00 0.00 0.00 42 1010.0
20260503230100 19 240 0.0 8.0 0.00 0.00 0.00 42 1010.0
20260503224701 19 240 3.2 8.0 0.00 0.00 0.00 42 1010.1
20260503224600 19 240 3.2 8.0 0.00 0.00 0.00 42 1010.1
20260503223201 19 250 1.6 8.0 0.00 0.00 0.00 42 1010.1
20260503223100 19 250 1.6 8.0 0.00 0.00 0.00 42 1010.1
20260503221701 19 230 9.7 8.0 0.00 0.00 0.00 41 1010.3
20260503221600 19 230 9.7 8.0 0.00 0.00 0.00 41 1010.3
20260503220201 19 240 1.6 8.0 0.00 0.00 0.00 41 1010.5
20260503220100 19 240 1.6 8.0 0.00 0.00 0.00 41 1010.5
20260503214701 18 230 0.0 8.0 0.00 0.00 0.00 41 1010.5
20260503214600 18 230 0.0 8.0 0.00 0.00 0.00 41 1010.5
20260503213201 18 230 6.4 8.0 0.00 0.00 0.00 41 1010.6
20260503213100 18 230 6.4 8.0 0.00 0.00 0.00 41 1010.6
20260503211701 18 220 8.0 8.0 0.00 0.00 0.00 41 1010.6
20260503211600 18 220 8.0 8.0 0.00 0.00 0.00 41 1010.6
20260503210201 18 240 6.4 8.0 0.00 0.00 0.00 40 1010.7
20260503210100 18 240 6.4 8.0 0.00 0.00 0.00 40 1010.7
20260503204701 18 230 8.0 8.0 0.00 0.00 0.00 38 1010.9
20260503204600 18 230 8.0 8.0 0.00 0.00 0.00 38 1010.9
20260503203201 19 240 8.0 8.0 0.00 0.00 0.00 38 1010.7
20260503203100 19 240 8.0 8.0 0.00 0.00 0.00 38 1010.7
20260503201701 19 230 6.4 8.0 0.00 0.00 0.00 37 1011.1
20260503201600 19 230 6.4 8.0 0.00 0.00 0.00 37 1011.1
20260503200201 19 210 11.3 8.0 0.00 0.00 0.00 38 1011.1
20260503200100 19 210 11.3 8.0 0.00 0.00 0.00 38 1011.1
20260503194701 18 210 4.8 8.0 0.00 0.00 0.00 39 1011.4
20260503194600 18 210 4.8 8.0 0.00 0.00 0.00 39 1011.4
20260503193201 19 210 9.7 8.0 0.00 0.00 0.00 38 1011.5
20260503193100 19 210 9.7 8.0 0.00 0.00 0.00 38 1011.5
20260503191701 19 210 4.8 8.0 0.00 0.00 0.00 38 1011.7
20260503191600 19 210 4.8 8.0 0.00 0.00 0.00 38 1011.7
20260503190201 18 210 9.7 8.0 0.00 0.00 0.00 38 1011.5
20260503190100 18 210 9.7 8.0 0.00 0.00 0.00 38 1011.5
20260503184701 17 210 9.7 8.0 0.00 0.00 0.00 38 1011.9
20260503184600 17 210 9.7 8.0 0.00 0.00 0.00 38 1011.9
20260503183201 17 210 6.4 8.0 0.00 0.00 0.00 39 1012.2
20260503183100 17 210 6.4 8.0 0.00 0.00 0.00 39 1012.2
20260503181701 17 210 4.8 8.0 0.00 0.00 0.00 39 1012.5
20260503181600 17 210 4.8 8.0 0.00 0.00 0.00 39 1012.5
20260503180201 16 210 14.5 8.0 0.00 0.00 0.00 43 1012.6
20260503180100 16 210 14.5 8.0 0.00 0.00 0.00 43 1012.6
20260503174701 15 220 4.8 8.0 0.00 0.00 0.00 44 1012.9
20260503174600 15 220 4.8 8.0 0.00 0.00 0.00 44 1012.9
20260503173201 14 220 0.0 8.0 0.00 0.00 0.00 48 1013.6
20260503173100 14 220 0.0 8.0 0.00 0.00 0.00 48 1013.6
20260503171701 13 220 11.3 8.0 0.00 0.00 0.00 49 1014.0
20260503171600 13 220 11.3 8.0 0.00 0.00 0.00 49 1014.0
20260503170201 13 200 0.0 8.0 0.00 0.00 0.00 50 1014.7
20260503160201 12 190 0.0 8.0 0.00 0.00 0.00 52 1015.7
20260503150201 11 200 0.0 8.0 0.00 0.00 0.00 57 1016.8
20260503140201 10 190 3.2 8.0 0.00 0.00 0.00 58 1017.5
20260503130202 9 200 0.0 8.0 0.00 0.00 0.00 60 1018.1
20260503120201 8 210 3.2 8.0 0.00 0.00 0.00 61 1018.0
20260503110201 8 190 3.2 8.0 0.00 0.00 0.00 59 1017.7
20260503100201 8 210 3.2 8.0 0.00 0.00 0.00 57 1018.1
20260503090201 8 200 0.0 8.0 0.00 0.00 0.00 56 1018.4
20260503081600 8 200 0.0 8.0 0.00 0.00 0.00 57 1018.4